indice_tiempo,ibi_eq_nac_total,ibi_eq_nac_transp,ibi_eq_nac_autom,ibi_eq_nac_otros_transp,ibi_eq_nac_maq,ibi_eq_nac_maq_eq,ibi_eq_nac_herram,ibi_eq_nac_muebles_envase
1970-01-01,4189,1896,1711,185,2293,1796,153,344
1970-04-01,5003,2189,1975,214,2814,2182,196,436
1970-07-01,5096,2157,1944,213,2940,2271,223,446
1970-10-01,5250,2349,2146,203,2901,2245,220,436
1971-01-01,4189,1896,1711,185,2293,1796,153,344
1971-04-01,5003,2189,1975,214,2814,2182,196,436
1971-07-01,5096,2157,1944,213,2940,2271,223,446
1971-10-01,5250,2349,2146,203,2901,2245,220,436
1972-01-01,4636,1980,1787,194,2656,2030,200,426
1972-04-01,6060,2614,2392,222,3446,2707,258,482
1972-07-01,6224,2879,2666,213,3345,2616,264,465
1972-10-01,6282,2821,2609,211,3461,2719,266,476
1973-01-01,5185,2213,2016,197,2972,2344,211,416
1973-04-01,6343,2645,2431,213,3698,2942,283,473
1973-07-01,6256,2557,2332,225,3700,2957,291,451
1973-10-01,7325,3338,3103,235,3987,3239,303,445
1974-01-01,5094,1922,1720,202,3172,2564,232,376
1974-04-01,6047,1994,1746,248,4053,3250,297,505
1974-07-01,6960,2742,2502,240,4218,3384,328,506
1974-10-01,7234,2912,2719,193,4322,3451,350,520
1975-01-01,4911,1988,1826,162,2923,2275,265,383
1975-04-01,6700,2537,2323,215,4163,3310,335,518
1975-07-01,5215,1826,1616,210,3389,2635,293,461
1975-10-01,5948,2104,2004,100,3844,2997,306,541
1976-01-01,4815,1537,1424,113,3277,2617,321,340
1976-04-01,6152,1805,1630,174,4348,3474,407,467
1976-07-01,6572,2236,2147,89,4336,3459,420,458
1976-10-01,7122,2333,2176,157,4789,3686,670,434
1977-01-01,6098,1902,1753,149,4196,3146,612,439
1977-04-01,8746,3112,2934,178,5634,4251,846,536
1977-07-01,8673,2822,2703,119,5850,4523,766,561
1977-10-01,6833,1969,1836,133,4864,3767,588,509
1978-01-01,4668,1835,1704,131,2833,2022,445,366
1978-04-01,5907,2308,2145,163,3599,2546,566,487
1978-07-01,6014,2080,1944,137,3933,2800,591,542
1978-10-01,6340,2148,1951,197,4192,3101,575,515
1979-01-01,4910,2020,1864,156,2890,2122,317,451
1979-04-01,6960,2576,2372,204,4383,3335,446,603
1979-07-01,6632,2660,2472,188,3972,2933,418,621
1979-10-01,6733,2726,2556,169,4007,2963,411,633
1980-01-01,5427,2646,2501,145,2781,2097,230,454
1980-04-01,6421,2817,2643,174,3604,2702,315,588
1980-07-01,6487,2621,2448,174,3866,2927,294,645
1980-10-01,6205,2216,2002,214,3989,2834,479,676
